User: anonymous   Login
Location: Fauquembergues
(50.6005°N, 2.0987°E)
Time: 23:08:31
(UTC+00:00)
Language:

Cosmos 1864 Rocket - Orbit

View from above orbital plane
View from above orbital plane
View from above satellite
View from above satellite

Ground track
Ground track

The orbit data is extracted from the following two-line orbital elements,

1 18161U 87057B   20263.52995211  .00000160  00000-0  14583-3 0  9992
2 18161  82.9296 266.0360 0030299 220.3079 256.5612 13.77062871648045
Epoch (UTC): 19 September 2020 12:43:07
Eccentricity: 0.0030299
inclination: 82.9296°
perigee height: 952 km
apogee height: 996 km
right ascension of ascending node: 266.0360°
argument of perigee: 220.3079°
revolutions per day: 13.77062871
mean anomaly at epoch: 256.5612°
orbit number at epoch: 64804

The dashed part of the orbit path shows where the satellite is in the earth's shadow,  

DLR